KD0RIH Weather Reports


time (UTC)temp
C
wind
direction
speed
KPH
gust
KPH
rain 1hr
cm
rain 24hr
cm
rain mn
cm
humidity
%
barometer
mb
20260506051000 11 310 0.0 0.0 0.00 0.00 0.00 54 1014.1
20260506050457 11 315 0.0 1.6 0.00 0.00 0.00 54 1013.9
20260506044948 11 318 0.0 0.0 0.00 0.10 0.10 54 1014.1
20260506044446 11 314 1.6 1.6 0.00 0.10 0.10 56 1013.6
20260506043942 10 319 0.0 0.0 0.00 0.10 0.10 55 1013.8
20260506043440 10 320 0.0 0.0 0.00 0.10 0.10 59 1013.5
20260506042937 10 304 0.0 0.0 0.00 0.10 0.10 63 1013.4
20260506042437 10 304 0.0 0.0 0.00 0.10 0.10 63 1013.5
20260506041934 10 304 0.0 0.0 0.00 0.10 0.10 63 1013.3
20260506041432 10 304 0.0 0.0 0.00 0.10 0.10 63 1013.3
20260506040929 10 307 0.0 0.0 0.00 0.10 0.10 63 1013.2
20260506040426 11 308 0.0 0.0 0.00 0.10 0.10 63 1013.2
20260506035922 11 308 0.0 0.0 0.00 0.10 0.10 63 1013.1
20260506035420 10 312 0.0 1.6 0.00 0.10 0.10 64 1013.0
20260506034917 11 316 0.0 0.0 0.00 0.10 0.10 66 1013.3
20260506034414 11 314 0.0 0.0 0.00 0.10 0.10 68 1013.3
20260506033911 11 314 0.0 0.0 0.00 0.10 0.10 68 1013.1
20260506033408 11 314 0.0 0.0 0.00 0.10 0.10 68 1013.1
20260506032905 11 314 0.0 0.0 0.00 0.10 0.10 66 1012.9
20260506032401 11 314 0.0 0.0 0.00 0.10 0.10 66 1012.9
20260506031858 11 314 0.0 0.0 0.00 0.10 0.10 65 1012.8
20260506031356 11 314 0.0 0.0 0.00 0.10 0.10 64 1012.8
20260506030853 11 310 0.0 0.0 0.00 0.10 0.10 64 1012.4
20260506030351 11 310 0.0 0.0 0.00 0.10 0.10 64 1012.3
20260506025848 11 310 0.0 0.0 0.00 0.10 0.10 63 1012.5
20260506025344 11 309 0.0 0.0 0.00 0.10 0.10 62 1012.5
20260506024841 11 310 0.0 0.0 0.00 0.10 0.10 62 1012.5
20260506024338 11 319 0.0 0.0 0.00 0.10 0.10 63 1012.4
20260506023834 11 318 0.0 0.0 0.00 0.10 0.10 66 1012.5
20260506023331 11 310 0.0 1.6 0.00 0.10 0.10 66 1012.3
20260506022828 11 311 0.0 0.0 0.00 0.10 0.10 70 1012.5
20260506022326 11 298 1.6 1.6 0.00 0.10 0.10 75 1012.2
20260506021824 11 300 0.0 0.0 0.00 0.10 0.10 75 1012.2
20260506021320 11 300 0.0 0.0 0.00 0.10 0.10 74 1012.3
20260506020817 11 300 0.0 0.0 0.00 0.10 0.10 73 1012.1
20260506020315 11 300 0.0 0.0 0.00 0.10 0.10 73 1012.0
20260506015813 11 300 0.0 0.0 0.00 0.10 0.10 72 1012.2
20260506015310 11 300 0.0 0.0 0.00 0.10 0.10 71 1012.1
20260506014806 11 300 0.0 0.0 0.00 0.10 0.10 71 1012.1
20260506014303 11 300 0.0 0.0 0.00 0.10 0.10 70 1011.9
20260506013800 11 300 0.0 1.6 0.00 0.10 0.10 70 1012.1
20260506013257 11 287 1.6 1.6 0.00 0.10 0.10 69 1012.1
20260506012753 11 290 0.0 0.0 0.00 0.10 0.10 70 1012.0
20260506012250 11 293 0.0 0.0 0.00 0.10 0.10 69 1011.9
20260506011748 12 270 1.6 3.2 0.00 0.10 0.10 69 1011.6
20260506011244 12 249 3.2 3.2 0.00 0.10 0.10 69 1011.7
20260506010742 12 292 1.6 1.6 0.00 0.10 0.10 68 1011.8
20260506010239 12 294 0.0 1.6 0.00 0.10 0.10 68 1011.9
20260506005737 12 288 1.6 3.2 0.00 0.10 0.10 66 1011.6
20260506005233 12 298 0.0 0.0 0.00 0.10 0.10 63 1011.6
20260506004729 12 303 0.0 0.0 0.00 0.10 0.10 59 1011.5
20260506004227 12 299 0.0 0.0 0.00 0.10 0.10 57 1011.5
20260506003723 13 299 0.0 0.0 0.00 0.10 0.10 53 1011.4
20260506003219 13 299 0.0 0.0 0.00 0.10 0.10 53 1011.1
20260506002715 13 299 0.0 0.0 0.00 0.10 0.10 52 1011.2
20260506002211 13 299 0.0 0.0 0.00 0.10 0.10 51 1011.5
20260506001707 13 299 0.0 0.0 0.00 0.10 0.10 49 1011.2
20260506001205 13 299 0.0 0.0 0.00 0.10 0.10 48 1011.2
20260506000702 13 299 0.0 0.0 0.00 0.10 0.10 47 1011.1
20260506000159 13 299 0.0 0.0 0.00 0.10 0.10 47 1011.6
20260505235657 13 299 0.0 0.0 0.00 0.10 0.10 48 1011.2
20260505235155 13 299 0.0 0.0 0.00 0.10 0.10 49 1011.5
20260505234651 13 299 0.0 0.0 0.00 0.10 0.10 47 1011.7
20260505234148 13 299 0.0 0.0 0.00 0.10 0.10 47 1011.6
20260505233645 13 299 0.0 0.0 0.00 0.10 0.10 48 1011.4
20260505233142 13 298 0.0 0.0 0.00 0.10 0.10 47 1011.2
20260505232640 14 320 0.0 0.0 0.00 0.10 0.10 45 1011.5
20260505232137 14 317 0.0 0.0 0.00 0.10 0.10 46 1011.4
20260505231634 14 316 0.0 0.0 0.00 0.10 0.10 46 1011.4
20260505231133 14 316 0.0 0.0 0.00 0.10 0.10 46 1011.2
20260505230631 14 315 0.0 0.0 0.00 0.10 0.10 44 1011.2
20260505230126 14 316 0.0 0.0 0.00 0.10 0.10 45 1011.1
20260505225623 15 314 0.0 0.0 0.00 0.10 0.10 44 1011.3
20260505225119 15 321 0.0 0.0 0.00 0.10 0.10 45 1011.2
20260505224616 15 310 0.0 0.0 0.00 0.10 0.10 43 1011.2
20260505224114 14 320 0.0 0.0 0.00 0.10 0.10 45 1011.2
20260505223611 15 311 0.0 0.0 0.00 0.10 0.10 46 1011.0
20260505223107 15 308 0.0 0.0 0.00 0.10 0.10 46 1011.2
20260505222603 15 321 0.0 0.0 0.00 0.10 0.10 47 1011.3
20260505222059 15 316 0.0 0.0 0.00 0.10 0.10 46 1011.2
20260505221557 14 317 0.0 0.0 0.00 0.10 0.10 45 1011.5
20260505221053 15 321 0.0 0.0 0.00 0.10 0.10 43 1011.3
20260505220550 15 317 0.0 0.0 0.00 0.10 0.10 44 1011.5
20260505220048 15 313 1.6 1.6 0.00 0.10 0.10 43 1011.4
20260505215546 15 338 1.6 1.6 0.00 0.10 0.10 44 1011.3
20260505215043 15 320 0.0 0.0 0.00 0.10 0.10 42 1011.4
20260505214541 15 316 0.0 0.0 0.00 0.10 0.10 43 1011.5
20260505214038 15 315 1.6 1.6 0.00 0.10 0.10 43 1011.4
20260505213536 15 322 0.0 0.0 0.00 0.10 0.10 42 1011.4
20260505213032 15 316 0.0 0.0 0.00 0.10 0.10 43 1011.5
20260505212528 15 314 0.0 1.6 0.00 0.10 0.10 41 1011.5
20260505212026 15 314 0.0 0.0 0.00 0.10 0.10 42 1011.5
20260505211523 15 317 0.0 1.6 0.00 0.10 0.10 41 1011.6
20260505211019 15 311 0.0 0.0 0.00 0.10 0.10 42 1011.5
20260505210516 15 319 0.0 0.0 0.00 0.10 0.10 40 1011.9
20260505210013 15 322 1.6 1.6 0.00 0.10 0.10 42 1011.6
20260505205511 15 323 0.0 0.0 0.00 0.10 0.10 42 1011.3
20260505205008 15 314 1.6 1.6 0.00 0.10 0.10 43 1011.5
20260505204506 15 311 0.0 0.0 0.00 0.10 0.10 43 1011.6
20260505204003 15 323 0.0 0.0 0.00 0.10 0.10 41 1011.5
20260505203459 15 314 0.0 0.0 0.00 0.10 0.10 42 1011.8
20260505202955 15 319 0.0 0.0 0.00 0.10 0.10 43 1011.7
20260505202453 15 320 0.0 1.6 0.00 0.10 0.10 42 1011.8
20260505201948 15 323 0.0 0.0 0.00 0.10 0.10 43 1011.7
20260505201446 15 326 1.6 1.6 0.00 0.10 0.10 41 1011.8
20260505200943 15 310 0.0 0.0 0.00 0.10 0.10 41 1011.8
20260505200441 15 26 1.6 1.6 0.00 0.10 0.10 42 1011.8
20260505195936 16 311 0.0 0.0 0.00 0.10 0.10 39 1011.7
20260505195434 15 325 0.0 1.6 0.00 0.10 0.10 42 1011.9
20260505194931 16 323 0.0 0.0 0.00 0.10 0.10 41 1012.1
20260505194428 16 319 0.0 0.0 0.00 0.10 0.10 40 1012.1
20260505193928 15 308 0.0 0.0 0.00 0.10 0.10 45 1012.0
20260505193426 13 305 0.0 0.0 0.00 0.10 0.10 48 1012.1
20260505192924 13 290 1.6 1.6 0.00 0.10 0.10 47 1012.1
20260505192422 15 315 1.6 3.2 0.00 0.10 0.10 43 1012.0
20260505191919 15 324 0.0 0.0 0.00 0.10 0.10 45 1012.1
20260505191418 13 322 0.0 0.0 0.00 0.10 0.10 46 1012.3
20260505190914 15 301 4.8 4.8 0.00 0.10 0.10 44 1012.3
20260505190409 15 322 0.0 0.0 0.00 0.10 0.10 42 1012.3
20260505185905 15 319 0.0 0.0 0.00 0.10 0.10 44 1012.2
20260505185402 15 314 0.0 0.0 0.00 0.10 0.10 45 1012.2
20260505184858 14 310 0.0 0.0 0.00 0.10 0.10 48 1012.3
20260505184355 13 342 0.0 1.6 0.00 0.10 0.10 50 1012.3
20260505183852 13 305 1.6 1.6 0.00 0.10 0.10 53 1012.1
20260505183349 13 323 0.0 0.0 0.00 0.10 0.10 52 1012.0
20260505182846 12 316 0.0 0.0 0.00 0.10 0.10 54 1012.2
20260505182343 13 313 0.0 1.6 0.00 0.10 0.10 52 1011.9
20260505181839 13 318 0.0 0.0 0.00 0.10 0.10 51 1012.1
20260505181336 12 325 0.0 0.0 0.00 0.10 0.10 57 1012.0
20260505180833 11 348 0.0 1.6 0.00 0.10 0.10 54 1012.3
20260505180330 11 39 3.2 3.2 0.00 0.10 0.10 57 1012.4
20260505175826 11 279 1.6 1.6 0.00 0.10 0.10 56 1012.2
20260505175323 11 345 1.6 1.6 0.00 0.10 0.10 56 1012.3
20260505174819 12 338 1.6 3.2 0.00 0.10 0.10 55 1012.3
20260505174317 12 312 0.0 0.0 0.00 0.10 0.10 55 1012.4
20260505173812 11 325 0.0 1.6 0.00 0.10 0.10 61 1012.5
20260505173309 11 351 1.6 1.6 0.00 0.10 0.10 57 1012.6
20260505172806 11 1 1.6 3.2 0.00 0.10 0.10 55 1012.7
20260505172305 11 352 1.6 3.2 0.00 0.10 0.10 60 1012.5
20260505171758 11 285 0.0 0.0 0.00 0.10 0.10 64 1012.4
20260505171255 12 307 0.0 0.0 0.00 0.10 0.10 66 1012.7
20260505170752 12 300 0.0 0.0 0.00 0.10 0.10 69 1013.0
20260505170249 12 300 0.0 0.0 0.00 0.10 0.10 66 1012.9
20260505165750 11 301 0.0 0.0 0.00 0.10 0.10 71 1013.1
20260505165246 11 300 0.0 0.0 0.00 0.10 0.10 70 1013.4
20260505164742 11 312 0.0 0.0 0.00 0.10 0.10 69 1013.2
20260505164239 11 322 1.6 1.6 0.00 0.10 0.10 71 1013.0
20260505163737 11 297 0.0 1.6 0.00 0.10 0.10 69 1013.2
20260505163236 11 313 0.0 1.6 0.00 0.10 0.10 67 1013.3
20260505162732 11 298 0.0 0.0 0.00 0.10 0.10 70 1013.1
20260505162229 11 314 0.0 0.0 0.00 0.10 0.10 69 1013.0
20260505161726 11 314 0.0 0.0 0.00 0.10 0.10 72 1013.0
20260505161224 11 320 0.0 0.0 0.00 0.10 0.10 78 1012.9
20260505160721 10 312 0.0 0.0 0.00 0.10 0.10 73 1012.4
20260505160219 10 137 3.2 4.8 0.00 0.10 0.10 72 1012.3
20260505153158 10 313 0.0 0.0 0.00 0.10 0.10 76 1012.7
20260505152654 10 291 0.0 0.0 0.00 0.10 0.10 75 1012.4
20260505152150 10 291 0.0 0.0 0.00 0.10 0.10 74 1012.4
20260505151646 10 290 0.0 0.0 0.00 0.10 0.10 72 1012.5
20260505151143 10 291 0.0 0.0 0.00 0.10 0.10 78 1012.3
20260505150639 10 291 0.0 0.0 0.00 0.10 0.10 76 1012.2
20260505150137 10 291 0.0 0.0 0.00 0.10 0.10 76 1012.1
20260505140605 10 313 0.0 0.0 0.00 0.05 0.05 77 1012.5
20260505125019 11 321 0.0 0.0 0.00 0.03 0.03 58 1010.3
20260505124515 11 315 0.0 0.0 0.00 0.03 0.03 55 1010.3
20260505124012 11 29 3.2 3.2 0.00 0.03 0.03 54 1010.3
20260505123508 11 315 0.0 1.6 0.00 0.03 0.03 53 1010.5
20260505123004 11 354 1.6 1.6 0.00 0.03 0.03 52 1010.5
20260505122501 11 320 0.0 0.0 0.00 0.03 0.03 53 1010.4
20260505121958 11 314 0.0 0.0 0.00 0.03 0.03 53 1010.1
20260505121455 11 348 3.2 3.2 0.00 0.03 0.03 53 1010.2
20260505120951 11 9 3.2 4.8 0.00 0.03 0.03 53 1010.0
20260505120447 11 321 0.0 0.0 0.00 0.03 0.03 54 1010.0
20260505115947 11 328 0.0 0.0 0.00 0.03 0.03 54 1009.9
20260505115443 11 280 1.6 1.6 0.00 0.03 0.03 54 1009.8
20260505114942 11 49 1.6 1.6 0.00 0.03 0.03 54 1009.7
20260505114437 11 67 3.2 3.2 0.00 0.03 0.03 53 1009.7
20260505113934 11 336 1.6 3.2 0.00 0.03 0.03 53 1009.6
20260505113430 11 58 3.2 3.2 0.00 0.03 0.03 52 1009.9
20260505112926 11 337 1.6 3.2 0.00 0.03 0.03 53 1009.9
20260505112424 11 325 1.6 3.2 0.00 0.03 0.03 53 1010.3
20260505111920 11 321 0.0 0.0 0.00 0.03 0.03 54 1010.1
20260505111415 11 348 4.8 11.3 0.00 0.03 0.03 53 1010.3
20260505110911 11 329 0.0 1.6 0.00 0.03 0.03 53 1010.3
20260505110408 11 309 1.6 4.8 0.00 0.03 0.03 54 1010.5
20260505101839 11 316 0.0 1.6 0.00 0.03 0.03 53 1010.3
20260505101334 11 313 0.0 0.0 0.00 0.03 0.03 52 1010.6
20260505100830 11 314 0.0 0.0 0.00 0.03 0.03 52 1010.4
20260505100327 11 302 0.0 1.6 0.00 0.03 0.03 52 1010.4
20260505095822 11 301 1.6 3.2 0.00 0.03 0.03 51 1010.5
20260505095320 11 320 1.6 1.6 0.00 0.03 0.03 52 1010.2
20260505094816 11 308 1.6 3.2 0.00 0.03 0.03 52 1010.3
20260505094313 11 309 1.6 1.6 0.00 0.03 0.03 52 1010.0
20260505093808 11 315 4.8 9.7 0.00 0.03 0.03 50 1010.1
20260505093307 11 335 4.8 6.4 0.00 0.03 0.03 55 1010.1
20260505092803 11 36 4.8 6.4 0.00 0.03 0.03 55 1010.1
20260505092304 11 317 0.0 0.0 0.00 0.03 0.03 59 1010.2
20260505091758 11 39 1.6 6.4 0.00 0.03 0.03 61 1010.2
20260505091256 11 312 0.0 0.0 0.00 0.03 0.03 64 1010.0
20260505090754 11 324 0.0 0.0 0.18 0.03 0.03 68 1009.9
20260505090252 11 323 0.0 0.0 0.18 0.03 0.03 65 1009.8
20260505085749 11 323 0.0 0.0 0.00 0.00 0.00 62 1009.8
20260505085247 11 323 0.0 0.0 0.00 0.00 0.00 61 1009.9
20260505084744 12 324 0.0 0.0 0.00 0.00 0.00 57 1010.0
20260505084244 12 329 0.0 1.6 0.00 0.00 0.00 55 1009.7
20260505083740 12 322 0.0 0.0 0.00 0.00 0.00 52 1009.5
20260505083237 12 315 0.0 1.6 0.00 0.00 0.00 55 1009.5
20260505082732 12 317 0.0 0.0 0.00 0.00 0.00 53 1009.6
20260505082230 12 313 0.0 0.0 0.00 0.00 0.00 54 1010.0
20260505081725 12 298 0.0 0.0 0.00 0.00 0.00 53 1009.6
20260505081223 12 319 0.0 0.0 0.00 0.00 0.00 54 1008.9
20260505080720 12 8 3.2 6.4 0.00 0.00 0.00 51 1008.5
20260505080216 13 306 0.0 1.6 0.00 0.00 0.00 49 1008.3
20260505075712 13 317 3.2 3.2 0.00 0.00 0.00 45 1008.2
20260505075209 13 337 1.6 3.2 0.00 0.00 0.00 41 1008.2
20260505074706 13 1 3.2 4.8 0.00 0.00 0.00 42 1008.2
20260505074203 13 296 0.0 1.6 0.00 0.00 0.00 41 1008.1
20260505073701 13 323 1.6 3.2 0.00 0.00 0.00 41 1008.0
20260505073159 13 306 1.6 3.2 0.00 0.00 0.00 41 1008.0
20260505072654 13 316 3.2 4.8 0.00 0.00 0.00 41 1007.8
20260505072151 13 314 1.6 3.2 0.00 0.00 0.00 40 1007.6
20260505071646 13 269 8.0 9.7 0.00 0.00 0.00 40 1007.6
20260505071144 14 301 0.0 1.6 0.00 0.00 0.00 40 1007.7
20260505070641 14 317 0.0 1.6 0.00 0.00 0.00 40 1007.7
20260505070137 14 308 6.4 11.3 0.00 0.00 0.00 39 1008.0
20260505065633 14 1 6.4 11.3 0.00 0.00 0.00 39 1008.0
20260505065130 14 310 4.8 6.4 0.00 0.00 0.00 39 1008.2
20260505064627 14 329 6.4 9.7 0.00 0.00 0.00 39 1008.2
20260505064125 14 318 6.4 11.3 0.00 0.00 0.00 39 1008.0
20260505063623 15 292 3.2 6.4 0.00 0.00 0.00 38 1007.7
20260505063118 15 296 6.4 9.7 0.00 0.00 0.00 38 1008.0
20260505062615 15 334 0.0 1.6 0.00 0.00 0.00 38 1008.3
20260505062112 15 308 3.2 4.8 0.00 0.00 0.00 38 1008.3
20260505061609 15 324 1.6 3.2 0.00 0.00 0.00 38 1008.5
20260505061108 15 321 0.0 1.6 0.00 0.00 0.00 38 1008.2
20260505060605 15 346 1.6 1.6 0.00 0.00 0.00 38 1008.3